Flag for U.S.A. Weather past 2 weeks in Antioch, California, U.S.A.

Now
72 °F

Clear.


Feels Like: 77 °F
Forecast: 64 / 100 °F
Wind: 5 mph from South

Location: Buchanan Field

Current Time: Jul 25, 2014 at 12:50:05 AM

Latest Report: Jul 24, 2014 at 11:53 PM


Visibility: 10 mi

Pressure: 29.79 "Hg

Humidity: 49%

Dew point: 52 °F

Location of AntiochLocation

Historic Weather in Antioch — Graph

°F

Antioch temperature yesterday

Maximum temperature yesterday: 93 °F (at 3:53 PM)
Minimum temperature yesterday: 61 °F (at 5:53 AM)
Average temperature yesterday: 77 °F

Past Weeks' High & Low Weather Summary

 TemperatureHumidityPressure
High97 °F (Jul 14, 3:53 PM)90% (Jul 10, 2:53 AM)30.10 "Hg (Jul 10, 2:53 AM)
Low56 °F (Jul 13, 4:53 AM)16% (Jul 24, 4:53 PM)29.77 "Hg (Jul 24, 5:53 PM)
Average69 °F65%29.93 "Hg
* Reported Jul 9 10:53 PM — Jul 24 10:53 PM, Antioch, Weather by CustomWeather, © 2014

Note: Actual official high and low records may vary slightly from our data, if they occured in-between our weather recording intervals... More about our weather records

Advertising

Antioch weather history for previous 24 hours

 ConditionsComfort  
Time TempWeatherWind HumidityBarometerVisibility
10:53 PM
Jul 24
74 °FClear.No wind45%29.79 "Hg10 mi
9:53 PM77 °FClear.5 mph33%29.79 "Hg10 mi
8:53 PM79 °FSunny.3 mph35%29.79 "Hg10 mi
7:53 PM83 °FSunny.13 mph33%29.78 "Hg10 mi
6:53 PM89 °FSunny.16 mph28%29.77 "Hg10 mi
5:53 PM93 °FSunny.15 mph21%29.77 "Hg10 mi
4:53 PM93 °FSunny.12 mph16%29.79 "Hg10 mi
3:53 PM93 °FSunny.6 mph20%29.81 "Hg10 mi
2:53 PM92 °FSunny.N/A24%29.84 "Hg10 mi
1:53 PM91 °FSunny.5 mph25%29.87 "Hg10 mi
12:53 PM88 °FSunny.6 mph27%29.90 "Hg10 mi
11:53 AM85 °FSunny.N/A31%29.92 "Hg10 mi
10:53 AM80 °FSunny.6 mph39%29.94 "Hg10 mi
9:53 AM74 °FSunny.3 mph53%29.96 "Hg10 mi
8:53 AM69 °FSunny.3 mph66%29.97 "Hg10 mi
7:53 AM65 °FSunny.7 mph78%29.97 "Hg10 mi
6:53 AM62 °FClear.9 mph83%29.97 "Hg10 mi
5:53 AM61 °FClear.7 mph87%29.96 "Hg10 mi
4:53 AM62 °FClear.7 mph83%29.96 "Hg10 mi
3:53 AM63 °FClear.7 mph81%29.96 "Hg10 mi
2:53 AM64 °FClear.7 mph78%29.97 "Hg10 mi
1:53 AM65 °FClear.9 mph76%29.98 "Hg10 mi
12:53 AM66 °FClear.8 mph73%29.98 "Hg10 mi
Weather by CustomWeather, © 2014

See weather overviewHow to use our weather pages